Pittsburgh Allegheny Co., PA

12:03 PM EDT on March 24, 2017 (GMT -0400)
Allegheny County

Weather History for KAGC - October, 2012

Change the Weather History Date:

Monday, October 8, 2012

  Actual Average Record
Temperature  
Mean Temperature 42 °F -  
Max Temperature 48 °F 67 °F 87 °F (2007)
Min Temperature 35 °F 44 °F 30 °F (2001)
Degree Days  
Heating Degree Days 24    
Moisture  
Dew Point 36 °F    
Average Humidity 81    
Maximum Humidity 93    
Minimum Humidity 56    
Precipitation  
Precipitation 0.01 in - - ()
Sea Level Pressure  
Sea Level Pressure 30.23 in    
Wind  
Wind Speed 3 mph (SSE)    
Max Wind Speed 6 mph    
Max Gust Speed -    
Visibility 5 miles    
Events Fog    
Averages and records for this station are not official NWS values.
T = Trace of Precipitation, MM = Missing Value Source: NWS Daily Summary

Daily Weather History Graph

Daily Weather History Graph

Search for Another Location

Airport or City:

Trip Planner

Search our weather history database for the weather conditions in past years. The results will help you decide how hot, cold, wet, or windy it might be!

Date:

Astronomy

Oct. 08, 2012 Rise Set
Actual Time 7:23 AM EDT 6:49 PM EDT
Civil Twilight 6:56 AM EDT 7:17 PM EDT
Nautical Twilight 6:24 AM EDT 7:48 PM EDT
Astronomical Twilight 5:53 AM EDT 8:20 PM EDT
Moon 12:00 AM EDT (10/8) 2:39 PM EDT (10/8)
Length of Visible Light 12h 20m
Length of Day
11h 26m
Waning Gibbous, 46% of the Moon is Illuminated
Oct 8
Waning Gibbous
Oct 15
New
Oct 21
First Quarter
Oct 29
Full
Nov 6
Last Quarter

Hourly Weather History & Observations

Time (EDT) Temp. Windchill Dew Point Humidity Pressure Visibility Wind Dir Wind Speed Gust Speed Precip Events Conditions
12:53 AM 39.0 °F 35.7 °F 36.0 °F 89% 30.20 in 10.0 mi SSW 4.6 mph - N/A   Clear
1:53 AM 37.9 °F 34.4 °F 35.1 °F 89% 30.22 in 8.0 mi South 4.6 mph - 0.01 in   Clear
2:53 AM 37.0 °F 34.5 °F 34.0 °F 89% 30.22 in 5.0 mi South 3.5 mph - N/A   Clear
3:32 AM 37.4 °F 33.8 °F 33.8 °F 87% 30.19 in 1.5 mi South 4.6 mph - N/A   Clear
3:40 AM 35.6 °F 30.7 °F 33.8 °F 93% 30.19 in 0.2 mi South 5.8 mph - N/A Fog Fog
3:53 AM 36.0 °F 32.1 °F 33.1 °F 89% 30.24 in 3.0 mi SSE 4.6 mph - N/A   Overcast
4:38 AM 35.6 °F 31.7 °F 33.8 °F 93% 30.20 in 3.0 mi SE 4.6 mph - N/A   Overcast
4:53 AM 36.0 °F 32.1 °F 34.0 °F 93% 30.24 in 3.0 mi SSE 4.6 mph - N/A   Overcast
5:00 AM 35.6 °F - 33.8 °F 93% 30.20 in 0.2 mi Calm Calm - N/A Fog Fog
5:53 AM 36.0 °F 32.1 °F 34.0 °F 93% 30.25 in 0.2 mi SSE 4.6 mph - N/A Fog Fog
6:39 AM 35.6 °F 30.7 °F 33.8 °F 93% 30.23 in 0.2 mi SSE 5.8 mph - N/A Fog Fog
6:53 AM 36.0 °F 31.1 °F 34.0 °F 93% 30.27 in 0.5 mi South 5.8 mph - N/A Fog Fog
7:03 AM 35.6 °F 30.7 °F 33.8 °F 93% 30.23 in 0.2 mi SSE 5.8 mph - N/A Fog Fog
7:53 AM 37.0 °F 32.4 °F 35.1 °F 93% 30.27 in 0.2 mi SSE 5.8 mph - N/A Fog Fog
8:07 AM 37.4 °F - 35.6 °F 93% 30.23 in - North - - N/A   Unknown
8:21 AM 37.4 °F 33.8 °F 35.6 °F 93% 30.23 in 0.2 mi SSE 4.6 mph - N/A Fog Fog
8:42 AM 39.2 °F - 37.4 °F 93% 30.23 in 0.2 mi Calm Calm - N/A Fog Fog
8:53 AM 39.0 °F - 37.0 °F 93% 30.27 in 0.2 mi Calm Calm - N/A Fog Fog
9:45 AM 39.2 °F - 37.4 °F 93% 30.24 in 0.2 mi Calm Calm - N/A Fog Fog
9:53 AM 41.0 °F - 39.0 °F 93% 30.28 in 0.2 mi Calm Calm - N/A Fog Fog
10:02 AM 41.0 °F - 39.2 °F 93% 30.24 in 0.2 mi Calm Calm - N/A Fog Fog
10:18 AM 41.0 °F - 39.2 °F 93% 30.24 in 0.8 mi Calm Calm - N/A   Overcast
10:26 AM 41.0 °F - 39.2 °F 93% 30.25 in 1.2 mi Calm Calm - N/A   Overcast
10:53 AM 42.1 °F 40.2 °F 39.9 °F 92% 30.29 in 2.0 mi SE 3.5 mph - N/A   Mostly Cloudy
11:07 AM 42.8 °F 41.1 °F 39.2 °F 87% 30.25 in 2.5 mi SE 3.5 mph - N/A   Mostly Cloudy
11:22 AM 42.8 °F - 39.2 °F 87% 30.24 in 2.5 mi Calm Calm - N/A   Scattered Clouds
11:53 AM 45.0 °F - 39.0 °F 80% 30.29 in 3.0 mi Calm Calm - N/A   Haze
12:08 PM 44.6 °F - 39.2 °F 81% 30.25 in 2.5 mi Calm Calm - N/A   Haze
12:44 PM 46.4 °F - 39.2 °F 76% 30.24 in 3.0 mi Calm Calm - N/A   Haze
12:53 PM 46.0 °F - 37.9 °F 73% 30.28 in 2.5 mi Calm Calm - N/A   Haze
1:00 PM 46.4 °F - 37.4 °F 71% 30.24 in 3.0 mi Calm Calm - N/A   Haze
1:53 PM 46.9 °F - 37.0 °F 68% 30.27 in 9.0 mi East 4.6 mph - N/A   Scattered Clouds
2:53 PM 48.0 °F - 35.1 °F 61% 30.26 in 10.0 mi South 4.6 mph - N/A   Mostly Cloudy
3:53 PM 48.0 °F - 33.1 °F 56% 30.25 in 10.0 mi South 4.6 mph - N/A   Overcast
4:00 PM 48.2 °F - 33.8 °F 58% 30.21 in 10.0 mi South 3.5 mph - N/A   Overcast
4:53 PM 48.0 °F - 33.1 °F 56% 30.24 in 10.0 mi SSW 4.6 mph - N/A   Overcast
5:53 PM 48.0 °F - 34.0 °F 58% 30.23 in 10.0 mi Calm Calm - N/A   Overcast
6:53 PM 46.9 °F - 34.0 °F 61% 30.23 in 10.0 mi Calm Calm - N/A   Overcast
7:24 PM 46.4 °F - 33.8 °F 62% 30.19 in 10.0 mi Calm Calm - N/A   Overcast
7:31 PM 46.4 °F - 35.6 °F 66% 30.19 in 10.0 mi Calm Calm - N/A   Overcast
7:40 PM 46.4 °F - 33.8 °F 62% 30.19 in 10.0 mi Calm Calm - N/A   Overcast
7:53 PM 46.9 °F - 34.0 °F 61% 30.22 in 10.0 mi Calm Calm - N/A   Overcast
8:22 PM 46.4 °F 44.3 °F 37.4 °F 71% 30.19 in 10.0 mi SSE 4.6 mph - N/A   Overcast
8:53 PM 45.0 °F 42.6 °F 37.9 °F 76% 30.22 in 10.0 mi SSE 4.6 mph - N/A   Overcast
9:53 PM 45.0 °F - 37.9 °F 76% 30.24 in 10.0 mi Calm Calm - N/A   Overcast
10:53 PM 44.1 °F - 37.9 °F 79% 30.24 in 10.0 mi Calm Calm - N/A   Partly Cloudy
11:53 PM 43.0 °F 41.3 °F 37.9 °F 82% 30.22 in 10.0 mi ESE 3.5 mph - N/A   Clear